CZ-6A DEB, 60655

Orbit data source: Space-Track

CZ-6A DEB, 60655 is space debris in LEO originally from a launch on Tue, 06 Aug 2024 UTC launched from the Taiyaun Space Center, China (TSC). Debris objects in space refer to the collection of defunct objects orbiting the Earth. Examples of debris include non-operational satellites, rocket bodies, and fragments generated from explosions, collisions, or faulty payload assembly.

Loading next visibility...
Identifier
60655, 2024-140BG
Orbit
LEO
Country
Flag of CNCN / PRC
Related business
Manufacturer
SAST
Mission
Spacecraft
Bus & Motor
Unknown
Mass
Unknown
Launch date (UTC)
2024-08-06 (2 years ago)
Launch vehicle
Unknown
Launch site
Taiyaun Space Center, China (TSC)
Object type
Payload
Rocket body
Debris
Shape & HBR
Unknown shape, 0.4 m
Radar Cross Section
Medium (>0.1 m² and <1 m²)

Expand to show TLE details & history
Last TLE update: 14 hours ago

TLE from 14 hours ago
0 CZ-6A DEB
1 60655U 24140BG  26171.26330931  .00000174  00000-0  73102-4 0  9996
2 60655  89.0016 274.2329 0040742 151.8949 208.4454 14.20697940 96623
Epoch: 2026-06-20T06:19Z
TLE epoch observation values (Epoch: 2026-06-20T06:19:09.924Z)
Latitude
0.00006°
Longitude
-89.03889°
Altitude
851.877 km
Speed
7.413 km/s
True Right ascension
18h 16m 55s
True Declination
0° 00' 00"
Sunlit
Object was in full shadow at epoch
Visualization orbit readout
Latitude
Unknown
Longitude
Unknown
Altitude
Unknown
Speed
Unknown
Apparent Right ascension
Unknown
Apparent Declination
Unknown
Sunlit
N/A
Visualization observer readout
Local Sidereal Time
07:21:58
Azimuth
Unknown
Elevation
Unknown
Doppler factor
Unknown
Orbital elements
Apogee altitude
849.27 km
Perigee altitude
790.617 km
Semi-major axis
7,198.081 km
Eccentricity
0.00407
Inclination
89.0016°
RAAN
274.2329°
Arg. of periapsis
151.8949°
True anomaly
208.22401°
Mean anomaly
208.4454°
Eccentric anomaly
208.33461°
Mean motion
3.55401 °/min
Orbital period
101.29 mins
BSTAR
0.000073102
Loading maneuver chart data...
Computing Atmospheric mass density...
Loading historical data...
Loading historical data...
Loading historical data...
Loading historical data...
Loading historical data...
Loading historical data...
Loading historical data...

Documentation

Showing up to 5 results
|